Content
SEND FEEDBACK

Daily
Averages
Monthly
Summary
United States of America

HOONAH, ALASKA


Home > North America > United States > Alaska
Elevation: 210 feet     Latitude: 58 27N     Longitude: 135 53W

WEATHER
 
SELECT A DAY
Number of Records: 431,595;   Date Range: 1/1/95 - 7/14/14
 
SHARE

PRINT THIS DATA

[ ← Previous Day ]
WEATHER ALMANAC - JANUARY 31, 2013
[ Next Day → ]
[ °C ]   °F
Weather ElementAverageHighLow
Temperature32.6 °F35.6 °F (1:16 pm)28.4 °F (7:16 am)
Dewpoint29 °F33.8 °F (4:16 pm)24.8 °F (7:16 am)
Humidity86.7 %93 % (2:36 am)81 % (4:56 am)
Barometer29.96 in30.09 in (11:16 pm)29.87 in (4:36 am)
Wind Speed0.7 mph6.9 mph (10:16 pm)
Weather ElementAverage
Visibility7 mi
Wind DirectionNE (39.7 °)

Weather ElementTotal
Precipitation---
Heating Degree Days33 (Base 65)
Averaged from 69 records on January 31, 2013
WEATHER CONDITIONS BREAKOUT
WIND DIRECTION BREAKOUT
WEATHER BY HOUR - JANUARY 31, 2013
[ °C ]   °F
Local TimeTemperatureDewpointHumidityBarometerVisibilityWind DirectionWind SpeedGust SpeedPrecipitationEventsConditions
12:36 AM30.2 °F26.6 °F86 %29.89 in10.0 miCalmOvercast
12:56 AM30.2 °F26.6 °F86 %29.89 in2.0 miCalmOvercast
1:16 AM30.2 °F26.6 °F86 %29.89 in7.0 miCalmOvercast
1:36 AM30.2 °F26.6 °F86 %29.89 in0.2 miCalmOvercast
1:56 AM30.2 °F26.6 °F86 %29.89 in7.0 miCalmOvercast
2:16 AM30.2 °F26.6 °F86 %29.89 in10.0 miCalmOvercast
2:36 AM30.2 °F28.4 °F93 %29.88 in10.0 miCalmOvercast
2:56 AM30.2 °F26.6 °F86 %29.88 in10.0 miCalmOvercast
3:16 AM30.2 °F26.6 °F86 %29.88 in10.0 miCalmOvercast
3:36 AM32.0 °F28.4 °F87 %29.88 in10.0 miCalmOvercast
3:56 AM30.2 °F26.6 °F86 %29.88 in10.0 miCalmOvercast
4:16 AM30.2 °F26.6 °F86 %29.88 in10.0 miCalmOvercast
4:36 AM33.8 °F30.2 °F87 %29.87 in10.0 miCalmOvercast
4:56 AM33.8 °F28.4 °F81 %29.87 in10.0 miCalmOvercast
5:16 AM30.2 °F26.6 °F86 %29.87 in10.0 miCalmOvercast
5:36 AM30.2 °F26.6 °F86 %29.88 in10.0 miCalmOvercast
5:56 AM30.2 °F26.6 °F86 %29.88 in10.0 miCalmOvercast
6:16 AM30.2 °F26.6 °F86 %29.88 in10.0 miCalmOvercast
6:36 AM30.2 °F26.6 °F86 %29.88 in10.0 miCalmMostly Cloudy
6:56 AM30.2 °F26.6 °F86 %29.88 in2.5 miCalmMostly Cloudy
7:16 AM28.4 °F24.8 °F86 %29.88 in1.2 miCalmOvercast
7:36 AM28.4 °F24.8 °F86 %29.89 in0.8 miCalmOvercast
7:56 AM28.4 °F24.8 °F86 %29.89 in0.2 miCalmOvercast
8:16 AM28.4 °F24.8 °F86 %29.89 in0.2 miCalmOvercast
8:36 AM30.2 °F26.6 °F86 %29.90 in0.2 miCalmOvercast
8:56 AM28.4 °F24.8 °F86 %29.91 in0.2 miCalmOvercast
9:16 AM28.4 °F24.8 °F86 %29.92 in0.2 miCalmOvercast
9:36 AM30.2 °F26.6 °F86 %29.93 in0.2 miCalmOvercast
9:56 AM30.2 °F26.6 °F86 %29.93 in0.2 miCalmOvercast
10:16 AM30.2 °F28.4 °F93 %29.94 in1.5 miCalmOvercast
10:36 AM32.0 °F28.4 °F87 %29.94 in1.8 miCalmOvercast
10:56 AM33.8 °F30.2 °F87 %29.94 in4.0 miCalmOvercast
11:16 AM33.8 °F30.2 °F87 %29.95 in10.0 miCalmOvercast
11:36 AM33.8 °F30.2 °F87 %29.95 in10.0 miCalmOvercast
11:56 AM33.8 °F30.2 °F87 %29.95 in3.0 miCalmMostly Cloudy
12:16 PM33.8 °F30.2 °F87 %29.95 in8.0 miCalmOvercast
12:36 PM33.8 °F30.2 °F87 %29.96 in10.0 miCalmOvercast
12:56 PM33.8 °F32.0 °F93 %29.96 in10.0 miCalmOvercast
1:16 PM35.6 °F32.0 °F87 %29.97 in3.0 miCalmOvercast
1:36 PM35.6 °F32.0 °F87 %29.98 in10.0 miCalmOvercast
1:56 PM35.6 °F32.0 °F87 %29.98 in10.0 miCalmOvercast
2:16 PM35.6 °F32.0 °F87 %29.98 in8.0 miESE (110°)3.5 mphOvercast
2:36 PM35.6 °F32.0 °F87 %29.99 in6.0 miEast (100°)3.5 mphOvercast
2:56 PM35.6 °F30.2 °F81 %29.99 in10.0 miCalmOvercast
3:16 PM35.6 °F32.0 °F87 %29.99 in9.0 miCalmOvercast
3:36 PM35.6 °F32.0 °F87 %30.00 in10.0 miCalmOvercast
3:56 PM35.6 °F32.0 °F87 %30.00 in10.0 miCalmOvercast
4:16 PM35.6 °F33.8 °F93 %30.00 in10.0 miESE (110°)5.8 mphOvercast
4:36 PM35.6 °F32.0 °F87 %30.00 in10.0 miCalmOvercast
5:16 PM35.6 °F30.2 °F81 %30.01 in10.0 miCalmOvercast
5:36 PM35.6 °F32.0 °F87 %30.01 in10.0 miENE (70°)3.5 mphOvercast
6:16 PM35.6 °F32.0 °F87 %30.01 in10.0 miCalmOvercast
6:36 PM33.8 °F30.2 °F87 %30.02 in10.0 miCalmOvercast
6:56 PM33.8 °F30.2 °F87 %30.02 in10.0 miCalmOvercast
7:16 PM33.8 °F30.2 °F87 %30.02 in10.0 miNNW (340°)3.5 mphOvercast
7:36 PM33.8 °F30.2 °F87 %30.03 in10.0 miCalmOvercast
7:56 PM33.8 °F30.2 °F87 %30.03 in10.0 miCalmOvercast
8:16 PM33.8 °F30.2 °F87 %30.04 in10.0 miNorth (350°)3.5 mphOvercast
8:36 PM33.8 °F30.2 °F87 %30.04 in10.0 miCalmOvercast
8:56 PM33.8 °F30.2 °F87 %30.05 in6.0 miCalmOvercast
9:16 PM33.8 °F30.2 °F87 %30.05 in5.0 miNNW (340°)3.5 mphOvercast
9:36 PM33.8 °F30.2 °F87 %30.06 in8.0 miNNW (340°)3.5 mphOvercast
9:56 PM33.8 °F30.2 °F87 %30.07 in8.0 miNNW (330°)5.8 mphOvercast
10:16 PM33.8 °F30.2 °F87 %30.07 in10.0 miNNW (330°)6.9 mphOvercast
10:36 PM33.8 °F30.2 °F87 %30.07 in9.0 miNW (320°)4.6 mphOvercast
10:56 PM35.6 °F32.0 °F87 %30.08 in5.0 miCalmOvercast
11:16 PM33.8 °F30.2 °F87 %30.09 in2.5 miCalmOvercast
11:36 PM33.8 °F30.2 °F87 %30.09 in2.5 miCalmOvercast
11:56 PM33.8 °F30.2 °F87 %30.09 in2.5 miCalmOvercast
Hourly data recorded from PAGS, located miles away from Hoonah, Alaska







STORIES FROM OUR PARTNERS